Lid_Strength_Index
16 14 14 14 14 14 14 13 15 13 14 13 11 10 9 8 6 5 5 5 5 4 4 4 3 3 3 2 2 2 2 2 2 2 1 1 1 1 1 1 1 1 1 2
17 14 14 15 14 13 13 13 14 13 14 11 10 10 9 8 7 6 6 5 5 4 4 4 4 3 3 3 2 2 2 2 2 2 2 2 1 1 1 1 1 1 1 1
20 15 15 16 14 13 13 12 13 14 12 11 11 11 10 9 9 8 6 5 5 4 4 4 4 3 3 3 2 2 3 2 2 2 2 2 2 2 2 2 1 1 1 1
19 17 20 15 12 11 12 11 11 12 11 10 10 9 9 8 8 8 7 5 4 4 3 3 3 3 2 2 3 3 3 3 2 2 2 2 2 2 2 2 2 2 2 1
19 19 16 14 11 11 12 12 10 11 10 10 9 9 10 9 8 8 7 5 4 4 4 3 4 3 3 3 3 3 3 3 2 2 2 2 2 2 2 2 2 2 1 1
18 19 20 14 9 8 9 15 9 9 9 10 10 12 10 7 6 6 6 5 4 4 4 4 4 3 3 3 3 3 3 3 2 2 2 2 2 2 2 2 2 2 2 1
18 18 16 12 9 8 15 13 9 8 9 9 10 8 7 6 5 5 5 5 4 4 3 3 3 3 3 3 4 3 2 2 2 2 2 2 2 2 2 2 2 2 2 2
17 18 19 8 9 13 10 8 8 8 8 8 9 8 6 5 5 4 4 4 3 6 6 4 3 3 4 4 2 2 2 2 2 2 2 2 2 2 2 2 2 3 2 2
13 15 10 8 9 7 7 8 7 7 7 7 7 6 6 6 6 5 5 5 4 4 4 3 3 3 3 3 2 2 2 2 2 2 2 2 2 2 3 2 3 3 3 3
12 9 9 8 7 6 6 7 7 6 6 6 7 6 6 6 6 5 5 5 4 4 4 4 3 3 3 2 2 2 3 3 2 2 2 2 2 2 2 3 3 3 3 3
11 9 8 8 7 7 6 6 7 6 6 6 6 6 6 6 5 5 5 4 4 4 4 4 3 3 3 3 3 4 3 3 3 3 6 7 8 9 7 10 7 3 3 3
12 9 9 9 7 6 6 7 7 7 6 5 5 6 6 6 6 5 5 4 4 4 5 4 3 3 3 4 3 4 5 5 6 6 5 5 6 7 13 13 13 14 13 9
9 6 7 6 6 5 6 7 7 7 6 7 6 5 5 5 5 6 5 4 4 4 4 3 3 3 4 4 4 5 5 5 6 6 7 7 7 7 8 8 13 13 12 10
5 6 8 7 8 7 6 7 6 6 6 5 5 5 5 5 5 5 5 4 3 3 3 3 3 3 2 3 3 4 4 8 3 4 5 5 6 7 7 5 6 5 12 12
6 5 6 6 5 6 6 6 7 7 6 6 4 5 5 5 5 5 5 5 5 5 6 5 5 4 3 2 4 3 3 3 2 2 2 4 4 4 4 4 4 3 7 10
6 6 6 6 6 6 6 6 7 7 6 6 6 6 6 6 6 6 5 5 6 7 6 6 6 5 4 2 2 2 3 5 4 3 3 3 3 3 3 3 4 5 5 7
8 8 7 7 7 6 7 6 6 6 7 7 7 7 7 7 7 7 6 6 6 6 5 5 5 5 5 3 3 2 2 3 5 3 3 3 3 3 3 3 3 3 4 7
5 5 5 6 6 6 6 5 5 5 5 5 5 6 6 6 6 6 6 6 5 4 5 4 5 4 4 4 3 3 3 3 3 3 3 3 3 4 4 4 3 5 7 9
5 5 5 5 5 5 5 5 5 4 4 4 4 5 4 4 4 4 4 5 5 4 4 3 3 4 4 3 3 3 3 3 3 3 3 5 4 4 4 4 5 5 5 6
6 5 5 6 5 5 5 4 4 4 4 4 4 4 5 5 5 6 7 8 7 6 6 6 5 4 3 2 4 3 2 3 3 4 3 3 3 3 4 6 4 5 5 5
6 6 6 6 6 5 4 3 4 5 4 5 6 7 7 6 7 7 7 7 6 6 5 5 5 5 4 2 1 2 2 2 2 2 3 3 3 3 3 4 4 5 5 6
9 8 7 7 7 7 6 5 4 4 5 5 5 5 6 6 6 6 6 7 6 6 6 6 5 5 4 4 3 2 2 2 2 2 3 3 3 3 3 3 3 3 4 4
9 9 9 9 9 8 8 8 7 7 7 7 7 7 8 8 8 7 8 7 6 7 6 6 6 6 6 5 5 5 6 6 3 3 3 2 3 3 3 2 2 2 3 3
9 9 9 8 8 9 9 9 8 8 9 9 9 8 8 7 9 8 8 8 8 8 8 7 6 6 6 5 5 6 6 6 5 5 6 8 7 6 5 4 3 3 2 3
8 8 8 8 9 9 8 8 8 8 9 9 9 8 8 8 9 9 8 8 8 8 8 7 7 7 6 5 4 4 4 5 5 5 5 5 6 7 8 8 8 7 6 6
9 9 9 9 9 9 8 8 9 8 8 8 9 9 9 9 9 9 9 9 9 9 9 9 8 8 7 6 6 5 5 5 4 4 5 5 6 6 6 8 8 8 7 7
8 8 8 8 8 8 8 8 9 9 8 8 9 8 8 8 8 8 8 8 8 8 8 8 7 7 7 6 6 6 6 5 7 4 4 4 5 6 6 6 6 7 6 6